Regional Weather Roundup
Issued by NWS Cleveland, OH

Home | Current Version | Previous Version | Text Only | Print | Product List | Glossary Off
Versions: 1 2 3 4 5 6 7 8 9 10 11 12 13 14 15 16 17 18 19 20 21 22 23 24 25 26 27 28 29 30 31 32 33 34 35 36 37 38 39 40 41 42 43 44 45 46 47 48 49 50

000
ASUS41 KCLE 020110
RWRCLE
OHIO REGIONAL WEATHER ROUNDUP
NATIONAL WEATHER SERVICE WILMINGTON, OH
800 PM EST SUN MAR 01 2015

NOTE: "FAIR" INDICATES FEW OR NO CLOUDS BELOW 12,000 FEET WITH NO
SIGNIFICANT WEATHER AND/OR OBSTRUCTIONS TO VISIBILITY.

OHZ001>008-015>018-024>027-034-035-043-044-020200-
   NORTHWEST OHIO

CITY           SKY/WX    TMP DP  RH WIND       PRES   REMARKS
DEFIANCE       PTCLDY    20  16  84 CALM      30.25S FOG
FINDLAY        MOCLDY    23  19  85 SW5       30.23S FOG     WCI  17
TOLEDO EXPRESS MOCLDY    15  13  91 SW3       30.24S
TOLEDO EXEC    MOCLDY    20  15  81 SW7       30.25S WCI  11
LIMA           PTCLDY    25  20  81 SW7       30.23S HAZE    WCI  17
$$

OHZ009>014-019>023-028>033-038-089-020200-
   NORTHEAST OHIO

CITY           SKY/WX    TMP DP  RH WIND       PRES   REMARKS
CLE-HOPKINS    LGT SNOW  24  20  84 W5        30.24F FOG     WCI  18
CLE-LAKEFRONT  CLOUDY    22  19  89 CALM      30.22F
CUY CO. ARPT   SNOWSHWR  25  23  93 NW7       30.22S FOG     WCI  17
LORAIN-ELYRIA  CLOUDY    22  20  92 CALM      30.23S FOG
ASHTABULA      CLOUDY    23  20  88 W6        30.20S WCI  16
AKRON-CANTON   LGT SNOW  31  28  89 W6        30.18F FOG     WCI  25
WOOSTER        CLOUDY    28  26  92 N7        30.21R FOG     WCI  21
MANSFIELD      CLOUDY    25  23  92 W3        30.20S
YOUNGSTOWN     LGT SNOW  30  28  92 W8        30.17S FOG     WCI  22
$$

OHZ042-051>053-060>062-070>072-077>081-020200-
  SOUTHWEST OHIO

CITY           SKY/WX    TMP DP  RH WIND       PRES   REMARKS
CINC-COVINGTON CLOUDY    34  32  92 W6        30.27R FOG     WCI  29
CINC-LUNKEN    CLOUDY    33  33 100 CALM      30.30R FOG
HAMILTON       CLOUDY    33  32  96 W3        30.29R FOG
DAYTON         CLOUDY    32  29  88 NW7       30.25R FOG     WCI  26
WRIGHT-PAT AFB CLOUDY    32  31  95 W5        30.25R WCI  27
DAYTON GENERAL CLOUDY    32  31  96 SW6       30.24R FOG     WCI  26
WILMINGTON     CLOUDY    32  30  92 W9        30.25R FOG     WCI  24
$$

OHZ036-037-039>041-045>050-054>059-063>069-073>076-082>088-020200-
  CENTRAL AND SOUTHEAST OHIO

CITY           SKY/WX    TMP DP  RH WIND       PRES   REMARKS
COLUMBUS       CLOUDY    32  30  92 CALM      30.22F FOG
OSU AIRPORT    CLOUDY    32  30  92 W3        30.22F FOG
BOLTON FIELD   CLOUDY   N/A N/A N/A SW6       30.23S
RICKENBACK AFB CLOUDY    32  32  99 W5        30.23S FOG     WCI  27
NEWARK         CLOUDY    34  31  88 SW6       30.22S WCI  29
MARION         CLOUDY    26  22  84 NW3       30.23S FOG
LANCASTER      CLOUDY    34  32  92 W5        30.23F FOG     WCI  30
ZANESVILLE     CLOUDY    33  31  92 W6        30.21F WCI  28
NEW PHILLY     LGT SNOW  34  31  88 CALM      30.21F FOG
$$



USA.gov is the U.S. government's official web portal to all federal, state and local government web resources and services.